Weather History for Carbondale, IL

Change the Weather History Date:

Tuesday, April 8, 2014

  Actual Average Record
Temperature  
Mean Temperature 53 °F -  
Max Temperature 62 °F 66 °F 85 °F (1924)
Min Temperature 45 °F 41 °F 23 °F (2007)
Degree Days  
Heating Degree Days 12    
Growing Degree Days 3 (Base 50)    
Moisture  
Dew Point 41 °F    
Average Humidity 63    
Maximum Humidity 82    
Minimum Humidity 41    
Precipitation  
Precipitation 0.01 in - - ()
Sea Level Pressure  
Sea Level Pressure 29.83 in    
Wind  
Wind Speed 9 mph (NW)    
Max Wind Speed 21 mph    
Max Gust Speed 26 mph    
Visibility 10 miles    
Events Rain , Thunderstorm    
Averages and records for this station are not official NWS values.
T = Trace of Precipitation, MM = Missing Value Source: NWS Daily Summary

Daily Weather History Graph

Daily Weather History Graph

Search for Another Location

Airport:

Trip Planner

Search our weather history database for the weather conditions in past years. The results will help you decide how hot, cold, wet, or windy it might be!

Date:

Astronomy

Apr. 08, 2014 Rise Set
Actual Time 6:31 AM CDT 7:26 PM CDT
Civil Twilight 6:05 AM CDT 7:53 PM CDT
Nautical Twilight 5:33 AM CDT 8:24 PM CDT
Astronomical Twilight 5:00 AM CDT 8:57 PM CDT
Moon 1:25 PM CDT (4/8) 2:38 AM CDT (4/8)
Length of Visible Light 13h 47m
Length of Day
12h 54m
Waxing Gibbous, 63% of the Moon is Illuminated
Apr 8
Waxing Gibbous
Apr 15
Full
Apr 22
Last Quarter
Apr 29
New
May 6
First Quarter

Hourly Weather History & Observations

Time (CDT) Temp. Windchill Dew Point Humidity Pressure Visibility Wind Dir Wind Speed Gust Speed Precip Events Conditions
12:52 AM 48.0 °F - 41.0 °F 77% 29.81 in 10.0 mi WSW 11.5 mph - 0.00 in   Overcast
1:52 AM 46.0 °F 41.4 °F 39.9 °F 79% 29.78 in 10.0 mi SW 9.2 mph - N/A   Partly Cloudy
2:52 AM 45.0 °F 40.6 °F 39.9 °F 82% 29.76 in 10.0 mi SW 8.1 mph - N/A   Clear
3:52 AM 45.0 °F 40.6 °F 39.0 °F 80% 29.76 in 10.0 mi SW 8.1 mph - N/A   Scattered Clouds
4:52 AM 46.9 °F - 39.9 °F 77% 29.75 in 10.0 mi SW 8.1 mph - N/A   Overcast
5:52 AM 46.0 °F 41.4 °F 39.9 °F 79% 29.77 in 10.0 mi WSW 9.2 mph - N/A   Mostly Cloudy
6:52 AM 45.0 °F 41.8 °F 39.9 °F 82% 29.78 in 10.0 mi WSW 5.8 mph - N/A   Clear
8:52 AM 52.0 °F - 43.0 °F 71% 29.80 in 10.0 mi WSW 4.6 mph - N/A   Overcast
9:52 AM 55.0 °F - 44.1 °F 67% 29.80 in 10.0 mi NW 4.6 mph - N/A   Mostly Cloudy
10:52 AM 57.0 °F - 46.0 °F 67% 29.81 in 10.0 mi NNW 6.9 mph - N/A   Overcast
11:36 AM 59.0 °F - 46.0 °F 62% 29.82 in 10.0 mi NW 12.7 mph - N/A   Mostly Cloudy
11:52 AM 60.1 °F - 46.9 °F 62% 29.82 in 10.0 mi NNW 11.5 mph - N/A   Mostly Cloudy
12:43 PM 59.0 °F - 45.0 °F 60% 29.81 in 10.0 mi NNW 8.1 mph - N/A Thunderstorm Thunderstorm
12:52 PM 59.0 °F - 46.0 °F 62% 29.81 in 10.0 mi NNW 8.1 mph - N/A Thunderstorm Thunderstorm
1:37 PM 57.0 °F - 41.0 °F 55% 29.81 in 10.0 mi NNE 5.8 mph - 0.00 in Thunderstorm Overcast
1:52 PM 55.0 °F - 41.0 °F 59% 29.82 in 8.0 mi North 20.7 mph 26.5 mph 0.01 in Rain Rain
1:59 PM 52.0 °F - 41.0 °F 66% 29.82 in 4.0 mi North 13.8 mph 26.5 mph N/A Rain , Thunderstorm Light Thunderstorms and Rain
2:24 PM 52.0 °F - 41.0 °F 66% 29.83 in 8.0 mi West 6.9 mph - N/A Rain , Thunderstorm Light Rain
2:41 PM 55.9 °F - 42.1 °F 60% 29.82 in 10.0 mi North 5.8 mph - N/A   Overcast
2:52 PM 57.9 °F - 43.0 °F 58% 29.82 in 10.0 mi NNW 5.8 mph - N/A   Mostly Cloudy
3:52 PM 57.9 °F - 41.0 °F 53% 29.82 in 10.0 mi NNW 12.7 mph 26.5 mph 0.00 in Rain Light Rain
4:52 PM 61.0 °F - 37.0 °F 41% 29.83 in 10.0 mi NNW 16.1 mph 24.2 mph 0.00 in   Clear
5:52 PM 61.0 °F - 37.9 °F 42% 29.86 in 10.0 mi NNW 13.8 mph - N/A   Clear
6:52 PM 57.9 °F - 36.0 °F 44% 29.88 in 10.0 mi NNW 11.5 mph - N/A   Clear
7:52 PM 54.0 °F - 36.0 °F 51% 29.91 in 10.0 mi NW 5.8 mph - N/A   Clear
8:52 PM 53.1 °F - 37.0 °F 55% 29.94 in 10.0 mi WNW 5.8 mph - N/A   Clear
9:52 PM 52.0 °F - 36.0 °F 54% 29.96 in 10.0 mi NW 8.1 mph - N/A   Clear
10:52 PM 51.1 °F - 35.1 °F 54% 29.97 in 10.0 mi WNW 5.8 mph - N/A   Clear
11:52 PM 48.9 °F - 35.1 °F 59% 29.99 in 10.0 mi WNW 5.8 mph - N/A   Clear